{"data":{"norad_id":61606,"epoch":"2026-05-24T16:46:39.992736Z","epoch_age_seconds":104078,"freshness":"FRESH","line1":"1 61606U 24188N   26144.69907399  .00000700  00000+0  19701-2 0  9997","line2":"2 61606  87.8873  40.8467 0001257  94.9236 265.2035 13.10373973 80221","mean_motion":13.10373973,"eccentricity":0.0001257,"inclination_deg":87.8873,"raan_deg":40.8467,"arg_perigee_deg":94.9236,"mean_anomaly_deg":265.2035,"bstar":0.0019701,"rev_number":8022,"period_min":109.892292557,"perigee_km":1220.7573799903,"apogee_km":1222.6679822002,"semimajor_km":7599.8496810953,"source":"CELESTRAK","updated_at":"2026-05-25T13:38:22.750503Z"}}